Flag for U.S.A. Weather past 2 weeks in Sidney, Montana, U.S.A.

14 °F


Feels Like: 3 °F
Forecast: -3 / 21 °F
Wind: 8 mph from South

Location: Sidney-Richland

Current Time: Nov 29, 2015 at 10:56:32 AM

Latest Report: Nov 29, 2015 at 10:35 AM

Visibility: 10 mi

Pressure: 30.21 "Hg (27.98 "Hg at 591m altitude)

Humidity: 79%

Dew point: 9 °F

Location of SidneyLocation

Historic Weather in Sidney — Graph


Sidney temperature yesterday

Maximum temperature yesterday: 28 °F (at 1:15 PM)
Minimum temperature yesterday: 3 °F (at 6:15 AM)
Average temperature yesterday: 13 °F

Past Weeks' High & Low Weather Summary

High63 °F (Nov 14, 12:55 PM)100% (Nov 16, 5:35 AM)30.59 "Hg (Nov 16, 5:35 AM)
Low-6 °F (Nov 27, 4:35 AM)25% (Nov 18, 2:35 PM)29.07 "Hg (Nov 18, 6:15 AM)
Average25 °F67%29.97 "Hg
* Reported Nov 14 9:15 AM — Nov 29 9:55 AM, Sidney, Weather by CustomWeather, © 2015

Note: Actual official high and low records may vary slightly from our data, if they occured in-between our weather recording intervals... More about our weather records


Sidney weather history for previous 24 hours

Time TempWeatherWind HumidityBarometerVisibility
9:55 AM
Sun, Nov 29
10 °FSunny.7 mph85%30.21 "Hg10 mi
9:35 AM10 °FSunny.3 mph85%30.21 "Hg10 mi
9:15 AM9 °FSunny.No wind78%30.22 "Hg10 mi
8:55 AM7 °FSunny.7 mph78%30.22 "Hg10 mi
8:35 AM5 °FSunny.8 mph85%30.22 "Hg10 mi
8:15 AM3 °FSunny.8 mph100%30.22 "Hg10 mi
7:55 AM1 °FSunny.3 mph85%30.22 "Hg10 mi
7:35 AM1 °FSunny.9 mph85%30.21 "Hg10 mi
7:15 AM1 °FClear.6 mph100%30.22 "Hg10 mi
6:55 AM0 °FClear.6 mph78%30.22 "Hg10 mi
6:35 AM1 °FClear.6 mph78%30.22 "Hg10 mi
6:15 AM1 °FClear.7 mph85%30.21 "Hg10 mi
5:55 AM1 °FClear.3 mph100%30.21 "Hg10 mi
5:35 AM1 °FClear.5 mph71%30.21 "Hg10 mi
5:15 AM1 °FClear.3 mph92%30.21 "Hg10 mi
4:55 AM0 °FClear.No wind71%30.21 "Hg10 mi
4:35 AM1 °FClear.No wind92%30.22 "Hg10 mi
4:15 AM1 °FClear.No wind71%30.22 "Hg10 mi
3:55 AM1 °FClear.7 mph92%30.22 "Hg10 mi
3:35 AM3 °FClear.5 mph92%30.22 "Hg10 mi
3:15 AM1 °FClear.8 mph71%30.22 "Hg10 mi
2:35 AM3 °FClear.No wind85%30.23 "Hg10 mi
2:15 AM1 °FClear.6 mph85%30.23 "Hg10 mi
1:55 AM1 °FClear.No wind85%30.22 "Hg10 mi
1:35 AM3 °FClear.5 mph100%30.22 "Hg10 mi
1:15 AM1 °FClear.5 mph85%30.22 "Hg10 mi
12:55 AM3 °FClear.No wind78%30.23 "Hg10 mi
11:35 PM
Sat, Nov 28
3 °FClear.No wind72%30.25 "Hg10 mi
10:15 PM5 °FClear.3 mph78%30.25 "Hg10 mi
9:55 PM7 °FClear.3 mph92%30.25 "Hg10 mi
9:35 PM7 °FClear.5 mph78%30.25 "Hg10 mi
8:55 PM9 °FClear.No wind78%30.25 "Hg10 mi
8:15 PM10 °FClear.No wind72%30.25 "Hg10 mi
7:55 PM9 °FClear.No wind78%30.25 "Hg10 mi
7:35 PM10 °FClear.No wind72%30.24 "Hg10 mi
7:15 PM12 °FClear.No wind73%30.25 "Hg10 mi
6:55 PM12 °FClear.No wind67%30.24 "Hg10 mi
6:35 PM14 °FClear.No wind67%30.24 "Hg10 mi
6:15 PM14 °FClear.No wind67%30.25 "Hg10 mi
5:55 PM16 °FClear.6 mph73%30.25 "Hg10 mi
4:55 PM18 °FClear.5 mph79%30.25 "Hg10 mi
4:15 PM23 °FClear.No wind58%30.26 "Hg10 mi
3:55 PM25 °FSunny.No wind59%30.25 "Hg8 mi
3:15 PM28 °FSunny.5 mph55%30.24 "Hg10 mi
2:55 PM28 °FSunny.3 mph51%30.23 "Hg10 mi
2:35 PM28 °FSunny.6 mph55%30.24 "Hg10 mi
1:35 PM28 °FSunny.7 mph55%30.26 "Hg10 mi
1:15 PM28 °FSunny.6 mph51%30.26 "Hg10 mi
12:55 PM27 °FSunny.6 mph59%30.27 "Hg10 mi
12:35 PM27 °FSunny.7 mph54%30.28 "Hg10 mi
12:15 PM25 °FSunny.9 mph59%30.28 "Hg10 mi
11:55 AM25 °FSunny.12 mph59%30.29 "Hg10 mi
11:35 AM25 °FSunny.10 mph59%30.29 "Hg10 mi
11:15 AM23 °FSunny.8 mph63%30.30 "Hg10 mi
10:55 AM21 °FSunny.10 mph63%30.31 "Hg10 mi
10:35 AM19 °FSunny.10 mph68%30.31 "Hg10 mi
10:15 AM18 °FSunny.12 mph73%30.32 "Hg10 mi
Weather by CustomWeather, © 2015

See weather overviewHow to use our weather pages